Regional Weather Roundup
Issued by NWS

Home | Current Version | Previous Version | Graphics & Text | Print | Product List | Glossary On
Versions: 1 2 3 4 5 6 7 8 9 10 11 12 13 14 15 16 17 18 19 20 21 22 23 24 25 26 27 28 29 30 31 32 33 34 35 36 37 38 39 40 41 42 43 44 45 46 47 48 49 50
995
ASUS43 KMPX 270110
RWRMN
WEATHER ROUNDUP FOR MINNESOTA
NATIONAL WEATHER SERVICE TWIN CITIES/CHANHASSEN MN
800 PM CDT WED APR 26 2017


NOTE: "FAIR" INDICATES FEW OR NO CLOUDS BELOW 12,000 FEET WITH NO
SIGNIFICANT WEATHER AND/OR OBSTRUCTIONS TO VISIBILITY. N/A MEANS
CURRENT SKY AND/OR WEATHER CONDITIONS ARE NOT AVAILABLE.

MNZ060>063-068>070-270200-
   Twin Cities Metro

CITY           SKY/WX    TMP DP  RH WIND       PRES   REMARKS
TWIN CITIES    DRIZZLE   39  32  76 N12       29.57S
ST PAUL        CLOUDY    39  33  79 NW9       29.58S
CRYSTAL        MIX PCPN  37  32  82 NW9       29.57S
BLAINE         CLOUDY    37  37 100 N9        29.57F
LAKEVILLE      CLOUDY    37  34  87 NW8       29.56S
EDEN PRAIRIE   CLOUDY    39  32  76 N10       29.57S
SOUTH ST PAUL  CLOUDY    39  33  81 N8        29.56S
LAKE ELMO      CLOUDY    36  34  93 N6        29.57S
$$
MNZ001>005-007-008-013>017-022>024-027-028-270200-
   Northwest Minnesota

CITY           SKY/WX    TMP DP  RH WIND       PRES   REMARKS
BEMIDJI        LGT SNOW  26  24  90 NE9       29.65F WCI  17
HALLOCK        LGT SNOW  32  30  93 N12       29.80S VSB 1   WCI  23
ROSEAU         LGT SNOW  30  27  86 NE16      29.77S WCI  19
WARROAD        LGT SNOW  30  27  86 NE20G28   29.77S WCI  18
THIEF RVR FALL FLURRIES  29  26  89 NE16      29.73F WCI  17
CROOKSTON      LGT SNOW  28  28 100 N9        29.76S WCI  20
FOSSTON        LGT SNOW  27  25  93 N15       29.69F WCI  15
DETROIT LAKES  CLOUDY    30  28  93 N9        29.66S WCI  22
MOORHEAD       RAIN      28  27  93 N7        29.72S WCI  21
PARK RAPIDS    LGT SNOW  29  23  78 NE7       29.63S WCI  22
MAHNOMEN       LGT SNOW  27  26  93 N5        29.67S WCI  22
$$
MNZ006-009>011-018-025>026-270200-
   North Central Minnesota

CITY           SKY/WX    TMP DP  RH WIND       PRES   REMARKS
BAUDETTE       FLURRIES  28  21  75 NE16G22   29.73S WCI  16
FLAG ISLAND    FLURRIES  30  25  80 NE17G26   29.78F WCI  18
INTL FALLS     CLOUDY    25  18  74 NE17G25   29.70S WCI  12
WASKISH        CLOUDY    27  25  93 NE12G23   29.69F FOG     WCI  16
BIG FORK       CLOUDY    27  21  80 N10G17    29.64F WCI  17
LONGVILLE      FLURRIES  28  25  86 N5        29.63R WCI  23
GRAND RAPIDS   CLOUDY    27  23  85 N8        29.64R WCI  19
CRANE LAKE     LGT SNOW  23  21  93 NE6       29.69F WCI  16
ORR            CLOUDY    25  18  74 E5        29.63S WCI  19
COOK           CLOUDY    25  19  80 N10       29.65R WCI  15
WALKER         CLOUDY    27  23  86 N7        29.64S WCI  19
$$
MNZ012-019>021-037-270200-
   Northeast Minnesota

CITY           SKY/WX    TMP DP  RH WIND       PRES   REMARKS
DULUTH         CLOUDY    30  26  85 NE15      29.58R WCI  19
ELY            CLOUDY    21  18  86 N6        29.64R WCI  14
HIBBING        CLOUDY    26  21  81 N14       29.62R WCI  14
EVELETH        CLOUDY    26  19  75 NE8       29.63R WCI  18
DULUTH HARBOR  CLOUDY    32  30  93 N16       29.61F WCI  21
TWO HARBORS    CLOUDY    30  27  86 N7        29.59R WCI  23
SILVER BAY     CLOUDY    27  25  93 N10       29.59R WCI  17
GRAND MARAIS     N/A     25  20  81 N17G28    29.60R WCI  12
G MARAIS ARPRT CLOUDY    18  12  79 N6        29.56S HAZE    WCI   9
$$
MNZ029>031-032-039>041-046>048-054>057-064-270200-
   West Central Minnesota

CITY           SKY/WX    TMP DP  RH WIND       PRES   REMARKS
FERGUS FALLS   CLOUDY    30  27  86 N10G17    29.68R WCI  21
WHEATON        CLOUDY    30  27  86 NW14G22   29.71R WCI  20
MORRIS         CLOUDY    30  28  93 NW14      29.65S WCI  20
ALEXANDRIA     CLOUDY    31  26  82 N10       29.63S WCI  22
ELBOW LAKE     CLOUDY    31  28  88 N13       29.65S WCI  21
WADENA         MIX PCPN  28  27  93 N3        29.63R
GLENWOOD       CLOUDY    30  27  86 N7        29.63S WCI  23
APPLETON       CLOUDY    32  27  80 NW12G17   29.66S WCI  23
BENSON         CLOUDY    34  28  80 N15       29.66R WCI  24
ORTONVILLE     CLOUDY    30  25  80 NW16      29.68S WCI  19
MADISON        CLOUDY    34  28  80 N15       29.67S WCI  24
WILLMAR        LGT SNOW  34  32  93 N10       29.64S WCI  26
$$
MNZ033>034-036-042>043-049>051-058-059-270200-
   Central Minnesota

CITY           SKY/WX    TMP DP  RH WIND       PRES   REMARKS
ST CLOUD       CLOUDY    32  31  96 NW8       29.62R FOG     WCI  25
SAUK CENTRE    CLOUDY    31  28  88 N8        29.63R WCI  23
PAYNESVILLE    CLOUDY    32  32 100 N5        29.63R WCI  27
AITKIN         CLOUDY    32  27  80 N6        29.60R WCI  26
PINE RIVER     LGT SNOW  28  27  93 NE7       29.67R WCI  21
BRAINERD       CLOUDY    30  27  88 N12       29.62R WCI  20
STAPLES        LGT SNOW  27  27 100 N6        29.63R WCI  20
LONG PRAIRIE   CLOUDY    30  28  93 CALM      29.63R
LITTLE FALLS   MIX PCPN  32  28  86 N5        29.63R WCI  27
LITCHFIELD     CLOUDY    34  32  93 VRB8      29.62R WCI  27
BUFFALO        CLOUDY    34  31  90 NW7       29.61S FOG     WCI  28
MAPLE LAKE     CLOUDY    34  32  93 NW10      29.62R FOG     WCI  26
HUTCHINSON     CLOUDY    35  32  89 N9        29.62S WCI  28
$$
MNZ037-044-045-052-053-270200-
   East Central Minnesota

CITY           SKY/WX    TMP DP  RH WIND       PRES   REMARKS
PRINCETON      CLOUDY    36  32  87 NW7       29.60S
MORA           CLOUDY    34  30  86 N5        29.61R WCI  30
CAMBRIDGE      CLOUDY    37  32  81 N6        29.57S
RUSH CITY      LGT RAIN  34  32  92 N9        29.59R WCI  26
MOOSE LAKE     CLOUDY    32  30  93 N7        29.58S WCI  26
HINCKLEY       LGT SNOW  34  32  93 N5        29.59S WCI  30
CLOQUET        FLURRIES  30  27  86 N8G16     29.59R WCI  23
MCGREGOR       CLOUDY    32  30  93 N5        29.61S WCI  27
$$
MNZ071>073-080-081-089-090-097-098-270200-
   Southwest Minnesota

CITY           SKY/WX    TMP DP  RH WIND       PRES   REMARKS
MONTEVIDEO     CLOUDY    32  28  86 N14G20    29.65S WCI  22
GRANITE FALLS  CLOUDY    33  30  89 NW17      29.66S WCI  22
CANBY          CLOUDY    32  28  86 W17       29.68F WCI  21
MARSHALL       CLOUDY    30  27  88 NW17G25   29.65S WCI  18
REDWOOD FALLS  CLOUDY    34  29  82 NW13      29.63S WCI  25
OLIVIA         CLOUDY    34  32  93 NW12      29.62S WCI  25
PIPESTONE      CLOUDY    30  25  80 NW16G22   29.64S WCI  19
WINDOM         CLOUDY    32  30  93 NW17G23   29.63R WCI  21
WORTHINGTON    CLOUDY    31  28  89 NW18      29.64R WCI  19
JACKSON        CLOUDY    32  30  93 NW15      29.63R WCI  22
TRACY          CLOUDY    32  30  92 NW16G24   29.65R WCI  21
SLAYTON        CLOUDY    30  27  90 NW14      29.64R WCI  19
$$
MNZ065>067-074>077-082>085-091>093-270200-
   South Central Minnesota

CITY           SKY/WX    TMP DP  RH WIND       PRES   REMARKS
MANKATO        CLOUDY    36  32  85 N12       29.60R
NEW ULM        LGT RAIN  36  34  93 N8        29.61S
ST JAMES       CLOUDY    34  34 100 W17       29.62S FOG     WCI  23
FAIRMONT       MIX PCPN  34  34 100 NW18      29.61S FOG     WCI  23
GLENCOE        CLOUDY    36  34  94 NW12      29.60S
FARIBAULT      CLOUDY    37  34  87 NW8       29.57S
OWATONNA       CLOUDY    37  34  87 NW14      29.56F
WASECA         CLOUDY    36  32  87 NW9       29.59S
ALBERT LEA     CLOUDY    37  34  87 NW10G17   29.56S
$$
MNZ078>079-086>088-094>096-270200-
   Southeast Minnesota

CITY           SKY/WX    TMP DP  RH WIND       PRES   REMARKS
ROCHESTER      LGT RAIN  38  36  92 NW13      29.53S
RED WING       CLOUDY    39  34  81 NW7       29.55R
STANTON        CLOUDY    40  34  79 NW8       29.55S
DODGE CENTER   CLOUDY    37  36  93 NW12      29.53F
WINONA         CLOUDY    41  36  81 NW8       29.54R
AUSTIN         CLOUDY    37  34  87 NW15G21   29.55S
PRESTON        CLOUDY    38  35  89 NW13      29.53S
$$
ABBREVIATIONS USED IN REMARKS
   TC - TEMPERATURES IN CELSIUS
  WCI - WIND CHILL INDEX
   HX - HEAT INDEX
  VSB - VISIBILITY
$$




USA.gov is the U.S. government's official web portal to all federal, state and local government web resources and services.